Regional Weather Roundup
Issued by NWS Bismarck, ND

Home | Current Version | Previous Version | Text Only | Print | Product List | Glossary On
Versions: 1 2 3 4 5 6 7 8 9 10 11 12 13 14 15 16 17 18 19 20 21 22 23 24 25 26 27 28 29 30 31 32 33 34 35 36 37 38 39 40 41 42 43 44 45 46 47 48 49 50
000
ASUS43 KBIS 160859
RWRBIS

NWR BROADCAST TEXT
NATIONAL WEATHER SERVICE BISMARCK ND
400 AM CDT WED APR 16 2014

NOTE: "FAIR" INDICATES FEW OR NO CLOUDS BELOW 12,000 FEET WITH NO
SIGNIFICANT WEATHER AND/OR OBSTRUCTIONS TO VISIBILITY.


CITY           SKY/WX    TMP DP  RH WIND       PRES   REMARKS
WILLISTON        N/A    N/A N/A N/A MISG      29.88R
MINOT          LGT SNOW  24  20  84 NE16      29.93R FOG     WCI  11
MINOT AFB      NOT AVBL
BISMARCK       CLOUDY    29  17  61 E18       29.82R WCI  16
DICKINSON      NOT AVBL
GARRISON         N/A     25  20  81 E17G25    29.86R WCI  12
HETTINGER ARPT CLOUDY    28  20  71 NE16      29.70R WCI  16
JAMESTOWN      CLOUDY    27  25  92 E21G29    29.87R WCI  13
CARRINGTON     LGT SNOW  25  25 100 E20G25    29.90R WCI  11
CROSBY         CLOUDY    25  25 100 E17       29.94R WCI  11
HARVEY         CLOUDY    23  23 100 E21G28    29.91R WCI   8
HAZEN          CLOUDY    27  18  69 E10G16    29.86R WCI  17
LINTON         FAIR      30  18  59 E20       29.74R WCI  18
OAKES          PTSUNNY   30  19  64 E22G31    29.82R WCI  17
RUGBY          PTSUNNY   23  21  93 E23       29.95S FOG     WCI   7
WATFORD CITY   CLOUDY    27  21  80 E12G21    29.83R WCI  16
$$

CITY           SKY/WX    TMP DP  RH WIND       PRES   REMARKS
GRAND FORKS    CLOUDY    29  14  53 E13       29.98R WCI  19
GRAND FORKS AF NOT AVBL
DEVILS LAKE    CLOUDY    27  16  63 E16G25    29.96S WCI  14
FARGO          LGT SNOW  28  24  85 E12       29.95R VSB 1   WCI  18
CANDO          LGT SNOW  23  19  86 E16       30.00R WCI  10
CAVALIER       PTSUNNY   27  14  59 NE8       30.08R WCI  18
GRAFTON        FAIR      27  14  59 E12       30.06R WCI  16
GWINNER        SUNNY     30  25  80 E25G35    29.85S WCI  16
LANGDON        CLOUDY    25  14  63 E14       30.02R WCI  13
WALHALLA       FAIR      25  16  68 NE7       30.09R WCI  17
$$

CITY           SKY/WX    TMP DP  RH WIND       PRES   REMARKS
ABERDEEN       CLOUDY    32  20  61 E16       29.76R
MOBRIDGE       MIX PCPN  32  23  69 E23G30    29.64F WCI  19
RAPID CITY     CLOUDY    40  36  86 N14       29.62R
GLASGOW        PTCLDY    26  20  77 NE13      29.85R WCI  15
SIDNEY         MOCLDY    28  19  69 NE12      29.84R WCI  18
WOLF POINT     PTCLDY    27  19  72 NE12      29.86R WCI  17
GLENDIVE       CLOUDY    32  19  59 NE13      29.78R
MILES CITY     CLOUDY    39  25  57 NW10      29.75R
BAKER          MOCLDY    34  25  69 E17       29.69R
$$

CITY           SKY/WX    TMP DP  RH WIND       PRES   REMARKS
BILLINGS       MOCLDY    39  31  72 W14       29.87R
GREAT FALLS    CLOUDY    36  35  96 NW5       29.89R
$$




USA.gov is the U.S. government's official web portal to all federal, state and local government web resources and services.